FREGAT DEB (TANK), 41108

Orbit data source: Space-Track

FREGAT DEB (TANK), 41108 is space debris in LEO originally from a launch on Fri, 11 Dec 2015 UTC launched from the Tyuratam Missile And Space Complex (TTMTR). Debris objects in space refer to the collection of defunct objects orbiting the Earth. Examples of debris include non-operational satellites, rocket bodies, and fragments generated from explosions, collisions, or faulty payload assembly.

Loading next visibility...
Identifier
41108, 2015-074D
Orbit
LEO
Country
Flag of CISCIS
Related business
Manufacturer
Lavochkin
Mission
Spacecraft
Bus & Motor
FREGAT SBB, Unknown motor
Mass
360 kg wet, 360 kg dry
Launch date (UTC)
2015-12-11 (10 years ago)
Launch vehicle
Unknown
Launch site
Tyuratam Missile And Space Complex (TTMTR)
Object type
Payload
Rocket body
Debris
Shape & HBR
Torus, 1.9 m
Radar Cross Section
6.703 m², Large (>1 m²)

Expand to show TLE details & history
Last TLE update: 7 hours ago

TLE from 7 hours ago
0 FREGAT DEB (TANK)
1 41108U 15074D   25261.28249446  .00088784  66773-5  12453-2 0  9992
2 41108  50.3099  28.3349 1240435 179.5538 180.6760 13.17241771413503
Epoch: 2025-09-18T06:46Z
TLE epoch observation values (Epoch: 2025-09-18T06:46:47.521Z)
Latitude
0.00003°
Longitude
-70.8094°
Altitude
2,135.155 km
Speed
6.407 km/s
True Right ascension
01h 53m 20s
True Declination
0° 00' 00"
Sunlit
Object was in full shadow at epoch
Visualization orbit readout
Latitude
Unknown
Longitude
Unknown
Altitude
Unknown
Speed
Unknown
Apparent Right ascension
Unknown
Apparent Declination
Unknown
Sunlit
N/A
Visualization observer readout
Local Sidereal Time
06:44:01
Azimuth
Unknown
Elevation
Unknown
Doppler factor
Unknown
Orbital elements
Apogee altitude
2,135.459 km
Perigee altitude
256.428 km
Semi-major axis
7,574.081 km
Eccentricity
0.12404
Inclination
50.3099°
RAAN
28.3349°
Arg. of periapsis
179.5538°
True anomaly
180.5309°
Mean anomaly
180.676°
Eccentric anomaly
180.6014°
Mean motion
3.29267 °/min
Orbital period
109.33 mins
BSTAR
0.0012453
Loading maneuver chart data...
Computing Atmospheric mass density...
Loading historical data...
Loading historical data...
Loading historical data...
Loading historical data...
Loading historical data...
Loading historical data...
Loading historical data...

Documentation

Showing up to 5 results
|